[[{"header":{"parameterUnit":"m.s-1","parameterCategory":1,"la1":30.2991,"la2":30.254,"lo1":-89.0895,"lo2":-89.0444,"dy":0.0017,"dx":0.0017,"nx":28,"ny":28,"refTime":"2025-12-29T03:00:00:Z","depth":0,"parameterNumber":2,"parameterNumberName":"U-component_of_WINDS"},"data":[0,0,0,0,0,0,0,0,0,0,0,0,0,0,0,0,0,0,0,0,0,0,0,0,0,0,0,0,0,0,0,0,0,0,0,0,0,0,0,0,0,0,0,0,0,0,0,0,0,0,0,0,0,0,0,0,0,0,1.1753,1.1753,0,1.1801,1.1802,1.1802,1.179,1.1789,1.1788,1.1787,1.1841,1.1844,1.1846,0,0,0,0,0,0,0,0,0,0,0,0,0,1.1654,1.1656,1.1753,1.1753,1.1754,1.1801,1.1802,1.1802,1.179,1.1789,1.1788,1.1787,1.1841,1.1843,1.1846,0,0,0,0,0,0,0,0,0,0,0,0,0,1.1699,1.1657,1.1752,1.1753,1.1754,1.1801,1.1802,1.1803,1.1791,1.1789,1.1788,1.1786,1.184,1.1843,1.1847,1.1897,0,0,1.1857,1.1859,0,0,0,0,0,0,0,0,1.1697,1.1703,1.1753,1.1753,1.1754,1.1788,1.1787,1.1834,1.1791,1.1777,1.1787,1.1786,1.1825,1.183,1.1842,1.1899,1.1902,1.1858,1.186,1.1861,1.1862,0,0,0,0,0,0,0,1.1694,1.1701,1.1772,1.1753,1.1754,1.1753,1.1758,1.1796,1.1809,1.1778,1.1777,1.1783,1.1825,1.1839,1.1843,1.1903,1.1857,1.1861,1.1863,1.1864,1.2006,1.2007,0,0,0,0,0,0,1.1689,1.1698,1.177,1.1773,1.1721,1.1756,1.1761,1.1779,1.1808,1.1811,1.1784,1.1782,1.1833,1.1839,1.1845,1.1908,1.1861,1.1864,1.1866,1.2004,1.2006,1.2008,0,0,0,0,0,0,1.1687,1.1696,1.1768,1.1736,1.1745,1.1759,1.1779,1.178,1.1794,1.1813,1.1815,1.1795,1.1833,1.184,1.1884,1.1909,1.1866,1.1869,1.2002,1.2005,1.2007,1.2032,0,0,0,0,0,0,1.1684,1.1695,1.1713,1.1736,1.1746,1.1805,1.178,1.1782,1.1799,1.1797,1.1824,1.1827,1.1832,1.1879,1.1888,1.1913,1.1872,1.2,1.2003,1.2006,1.2029,1.2035,1.204,0,0,0,0,0,1.1681,1.1719,1.1714,1.1723,1.1769,1.1807,1.1813,1.1817,1.1801,1.1821,1.1833,1.1826,1.1905,1.1884,1.1893,1.192,1.1999,1.2002,1.2006,1.2027,1.2034,1.204,0,0,0,0,0,0,1.17,1.1722,1.1717,1.1763,1.1783,1.1805,1.1829,1.1824,1.185,1.1847,1.1852,1.1858,1.1904,1.1916,1.1892,1.1972,1.195,1.1956,1.1962,1.1969,1.1974,1.1971,1.1875,0,0,0,0,0,1.1709,1.1736,1.1755,1.1794,1.1804,1.1815,1.1831,1.1832,1.1854,1.1863,1.1878,1.1901,1.1931,1.195,1.1979,1.203,1.2037,1.2054,1.2059,1.2064,1.2069,1.21,1.2108,1.202,1.202,1.202,0,0,1.1729,1.1744,1.1762,1.1798,1.1813,1.1843,1.1822,1.1854,1.1877,1.1868,1.1911,1.1923,1.1948,1.1997,1.2019,1.2009,1.2095,1.2069,1.2072,1.2075,1.2104,1.2113,1.212,1.2023,1.2022,1.2022,0,0,1.1781,1.1794,1.1829,1.1845,1.1869,1.1876,1.1884,1.1907,1.1914,1.1957,1.1951,1.1979,1.203,1.2049,1.2065,1.2125,1.2121,1.2134,1.2164,1.2193,1.22,1.2206,1.223,1.2238,1.2139,1.2139,1.2139,0,1.1803,1.1847,1.1848,1.1881,1.1898,1.189,1.1927,1.1942,1.1975,1.1987,1.1975,1.2039,1.2056,1.211,1.2124,1.2137,1.2148,1.2132,1.2199,1.2205,1.2211,1.2233,1.2242,1.2141,1.2141,1.2141,1.2141,0,1.1874,1.1904,1.193,1.196,1.198,1.2014,1.2023,1.2043,1.2042,1.2051,1.2096,1.2115,1.2148,1.2161,1.2161,1.2215,1.2208,1.2197,1.2176,1.2221,1.2242,1.225,1.2143,1.2143,1.2142,1.2142,0,0,1.1939,1.197,1.198,1.1994,1.202,1.2044,1.2079,1.211,1.2128,1.2151,1.2182,1.2225,1.2216,1.2234,1.2236,1.2262,1.2311,1.2248,1.2249,1.2261,1.2374,1.2383,1.2393,1.2307,1.2309,1.231,1.2372,0,1.1995,1.2055,1.2058,1.2114,1.2143,1.2136,1.2167,1.2187,1.2196,1.2224,1.2235,1.2266,1.225,1.2261,1.2286,1.2299,1.2334,1.2295,1.2338,1.2339,1.2333,1.2404,1.2413,1.2472,1.238,1.2382,1.2383,0,1.2068,1.2092,1.215,1.2173,1.2186,1.2213,1.2243,1.2268,1.2292,1.2297,1.2318,1.2317,1.2354,1.233,1.2383,1.2357,1.2375,1.2384,1.2386,1.2392,1.2365,1.2413,1.249,1.2499,1.2395,1.2394,1.2394,0,1.2112,1.2159,1.2201,1.2213,1.224,1.226,1.2273,1.2294,1.2313,1.234,1.2352,1.2383,1.24,1.2425,1.2433,1.2414,1.2487,1.2462,1.2494,1.2494,1.2511,1.251,1.2593,1.2519,1.2519,1.2519,1.2519,0,1.2175,1.2211,1.2221,1.2247,1.2288,1.2292,1.2333,1.2344,1.2364,1.2393,1.2389,1.2417,1.2425,1.2454,1.2461,1.2505,1.2513,1.2519,1.2521,1.2521,1.252,1.2534,1.2531,1.2521,1.2521,1.252,1.252,0,1.2232,1.224,1.2285,1.2307,1.2313,1.2343,1.2362,1.2388,1.2397,1.2434,1.2443,1.2457,1.2492,1.2502,1.2544,1.2549,1.2601,1.2598,1.2593,1.2594,1.2625,1.2623,1.2722,1.2736,1.2651,1.2652,1.2652,0,1.2272,1.23,1.2325,1.2344,1.2357,1.2387,1.2406,1.2411,1.2432,1.2461,1.2484,1.2518,1.2545,1.2602,1.2617,1.265,1.2649,1.2681,1.2654,1.2653,1.2651,1.265,1.2654,1.2687,1.2688,1.2688,1.2689,0,1.2343,1.2346,1.2373,1.2403,1.2425,1.2449,1.2471,1.2487,1.2496,1.2519,1.2554,1.2576,1.2619,1.2653,1.2686,1.2701,1.2698,1.2697,1.2707,1.2707,1.2704,1.2708,1.2609,1.2695,1.2695,1.2694,1.2694,1.2694,1.2395,1.242,1.2441,1.2472,1.249,1.2511,1.2537,1.2549,1.2578,1.2612,1.2613,1.2652,1.2676,1.272,1.2737,1.2768,1.2759,1.2772,1.2776,1.2779,1.2783,1.2697,1.2774,1.2774,1.2774,1.2774,1.2773,0,1.2467,1.2481,1.2509,1.2541,1.2566,1.2558,1.2583,1.2605,1.2639,1.2661,1.2688,1.273,1.2763,1.2781,1.2815,1.2837,1.2837,1.2846,1.2846,1.285,1.2788,1.2777,1.2846,1.2846,1.2846,1.2846,1.2846,1.2846,1.2508,1.255,1.2556,1.2608,1.2622,1.2659,1.2674,1.2694,1.2712,1.2758,1.2786,1.2797,1.2818,1.2854,1.2885,1.289,1.2903,1.2915,1.2918,1.2861,1.2854,1.2847,1.2837,1.2917,1.2917,1.2977,1.2978,1.2978]},{"header":{"parameterUnit":"m.s-1","parameterCategory":1,"la1":30.2991,"la2":30.254,"lo1":-89.0895,"lo2":-89.0444,"dy":0.0017,"dx":0.0017,"nx":28,"ny":28,"refTime":"2025-12-29T03:00:00:Z","depth":0,"parameterNumber":3,"parameterNumberName":"V-component_of_WINDS"},"data":[0,0,0,0,0,0,0,0,0,0,0,0,0,0,0,0,0,0,0,0,0,0,0,0,0,0,0,0,0,0,0,0,0,0,0,0,0,0,0,0,0,0,0,0,0,0,0,0,0,0,0,0,0,0,0,0,0,0,2.8678,2.8679,0,2.8792,2.8793,2.8795,2.882,2.8819,2.8818,2.8817,2.8937,2.8941,2.8945,0,0,0,0,0,0,0,0,0,0,0,0,0,2.8484,2.8488,2.8678,2.8679,2.8681,2.8792,2.8793,2.8795,2.882,2.8819,2.8818,2.8817,2.8936,2.8941,2.8945,0,0,0,0,0,0,0,0,0,0,0,0,0,2.858,2.8489,2.8678,2.8706,2.871,2.8791,2.8793,2.8795,2.882,2.8819,2.8818,2.8816,2.8934,2.894,2.8946,2.9008,0,0,2.8964,2.8967,0,0,0,0,0,0,0,0,2.8575,2.8587,2.8701,2.8705,2.8709,2.879,2.8769,2.8867,2.882,2.8778,2.8817,2.8816,2.889,2.8899,2.8923,2.9013,2.9019,2.8965,2.8968,2.8971,2.8973,0,0,0,0,0,0,0,2.8568,2.8583,2.8723,2.8702,2.8707,2.8715,2.8727,2.8788,2.884,2.8782,2.8784,2.8797,2.8892,2.8918,2.8926,2.902,2.8965,2.897,2.8974,2.8976,2.9167,2.9169,0,0,0,0,0,0,2.8556,2.8577,2.872,2.8727,2.8637,2.8719,2.8733,2.8765,2.8839,2.8849,2.8798,2.8798,2.8908,2.8919,2.8931,2.9009,2.8971,2.8976,2.898,2.9166,2.9168,2.9169,0,0,0,0,0,0,2.8552,2.8569,2.8715,2.8652,2.8672,2.8724,2.876,2.8768,2.8794,2.8851,2.8861,2.8815,2.8907,2.8922,2.8988,2.9013,2.8979,2.8985,2.9164,2.9166,2.9169,2.9165,0,0,0,0,0,0,2.8546,2.8567,2.859,2.8653,2.8675,2.877,2.8762,2.8772,2.8804,2.8805,2.887,2.8879,2.8908,2.8979,2.8994,2.9021,2.8989,2.9162,2.9165,2.9168,2.9163,2.9167,2.917,0,0,0,0,0,2.8539,2.8585,2.8591,2.8608,2.8705,2.8771,2.8784,2.8815,2.8806,2.8831,2.8867,2.8877,2.9007,2.8986,2.9003,2.9032,2.9161,2.9164,2.9168,2.9162,2.9166,2.917,0,0,0,0,0,0,2.8526,2.8594,2.8602,2.8669,2.8714,2.8775,2.8807,2.8819,2.8868,2.8867,2.8904,2.8919,2.8983,2.9013,2.8988,2.9096,2.9084,2.9091,2.9073,2.9078,2.9081,2.9074,2.8994,0,0,0,0,0,2.853,2.8578,2.8635,2.8689,2.8711,2.8755,2.8785,2.8805,2.8854,2.8873,2.8914,2.8962,2.9014,2.9047,2.9098,2.9167,2.9182,2.9195,2.9198,2.9201,2.9207,2.9247,2.9254,2.9181,2.9181,2.918,0,0,2.8541,2.8584,2.8612,2.8688,2.8725,2.8774,2.8771,2.8823,2.886,2.8881,2.8947,2.8978,2.9034,2.9101,2.9133,2.9129,2.923,2.9205,2.9207,2.9212,2.9251,2.9258,2.9264,2.9183,2.9182,2.9182,0,0,2.8587,2.8623,2.8673,2.8709,2.8765,2.8794,2.8806,2.8865,2.8887,2.8952,2.8969,2.9014,2.9102,2.9141,2.9173,2.9231,2.9243,2.9247,2.9265,2.9304,2.9309,2.9315,2.9337,2.9345,2.9252,2.9252,2.9252,0,2.8594,2.8667,2.8697,2.8748,2.8781,2.8801,2.8852,2.8886,2.8956,2.8979,2.8973,2.9084,2.9123,2.92,2.9214,2.9239,2.9254,2.9241,2.9306,2.9312,2.9317,2.9339,2.9347,2.9252,2.9252,2.9252,2.9252,0,2.8674,2.8724,2.8758,2.8824,2.886,2.8911,2.8949,2.8983,2.8999,2.9028,2.9095,2.9142,2.9203,2.9222,2.9239,2.9302,2.9298,2.9298,2.9288,2.9324,2.9345,2.9354,2.9253,2.9253,2.9253,2.9253,0,0,2.8716,2.8796,2.8809,2.8839,2.8901,2.8942,2.8993,2.9051,2.908,2.9127,2.9173,2.9246,2.9246,2.9282,2.9303,2.9336,2.9381,2.9333,2.9334,2.9342,2.9456,2.9457,2.9466,2.9388,2.939,2.9391,2.9452,0,2.8771,2.8863,2.889,2.8969,2.9017,2.9035,2.908,2.9124,2.9152,2.9198,2.9229,2.9282,2.9277,2.9299,2.9332,2.9369,2.9405,2.9364,2.9433,2.9435,2.942,2.9477,2.9479,2.9534,2.946,2.9462,2.9463,0,2.8847,2.8894,2.8977,2.9033,2.9054,2.9094,2.915,2.9192,2.9242,2.9261,2.93,2.9318,2.9373,2.9357,2.9435,2.9407,2.9436,2.9458,2.9461,2.9471,2.9453,2.949,2.9552,2.9561,2.9476,2.9475,2.9474,0,2.8872,2.8956,2.9017,2.9042,2.9108,2.9136,2.9165,2.9213,2.9247,2.9295,2.9318,2.9372,2.9403,2.9445,2.9478,2.9463,2.9553,2.954,2.9572,2.9571,2.9593,2.9591,2.9662,2.9607,2.9607,2.9607,2.9607,0,2.8931,2.8982,2.9029,2.9066,2.9123,2.9154,2.921,2.924,2.9283,2.9327,2.9346,2.9387,2.9426,2.9473,2.9499,2.9561,2.9574,2.9591,2.9598,2.9591,2.9589,2.9613,2.9611,2.9609,2.9609,2.9608,2.9608,0,2.897,2.9003,2.9071,2.9127,2.9143,2.9183,2.9232,2.9269,2.9297,2.9353,2.9368,2.9413,2.947,2.9505,2.9577,2.9594,2.9662,2.9667,2.9645,2.9649,2.968,2.9677,2.977,2.9785,2.9718,2.9718,2.9719,0,2.9007,2.9046,2.9106,2.9137,2.9166,2.9215,2.9248,2.928,2.9314,2.9373,2.9404,2.9461,2.9508,2.9597,2.9637,2.9692,2.97,2.9728,2.9708,2.97,2.9703,2.9701,2.9706,2.9733,2.9733,2.9734,2.9734,0,2.907,2.9084,2.9131,2.9184,2.9223,2.9267,2.931,2.9334,2.9373,2.9411,2.9468,2.9505,2.9577,2.9634,2.9692,2.9724,2.9736,2.9739,2.975,2.9745,2.9732,2.9741,2.9657,2.9738,2.9737,2.9737,2.9737,2.9737,2.911,2.9146,2.9194,2.9246,2.9281,2.9321,2.936,2.9392,2.944,2.95,2.9516,2.9576,2.9625,2.9704,2.9736,2.9784,2.9781,2.9796,2.98,2.9804,2.9805,2.9721,2.9795,2.9795,2.9794,2.9794,2.9794,0,2.9176,2.9207,2.9254,2.9314,2.9355,2.936,2.9408,2.9443,2.9495,2.9539,2.9585,2.965,2.9705,2.9749,2.9805,2.9836,2.9843,2.985,2.9849,2.9857,2.9804,2.979,2.9843,2.9843,2.9843,2.9843,2.9843,2.9843,2.9215,2.9276,2.9295,2.9374,2.9405,2.9463,2.9491,2.9528,2.9563,2.9635,2.968,2.9707,2.9752,2.9811,2.9863,2.9874,2.9895,2.9901,2.9914,2.9865,2.986,2.9855,2.9842,2.9905,2.9905,2.9963,2.9963,2.9964]}]]